OneWeb SL0152

operational
NORAD ID: 48043 Int'l Des: 2021-025 Owner: ONEWEBN Country: UK Constellation: oneweb
LEOCIRCULARPOLARONEWEB_TYPE

Über OneWeb SL0152

Beschreibung wird geladen...

Live-Position

3D-Globus wird geladen...

Nächste Überflüge

Höhenverlauf

Altitude vs Time

uPlot chart will show altitude changes over time

Zweizeiliger Elementsatz

1 48043U 21025B 26034.42140527 -.00000194 00000-0 -56487-3 0 9998
2 48043 87.9028 346.8072 0001750 76.8260 283.3064 13.13470373235993
Epoch: 3. Feb. 2026 • Age: 22 hours

Aktueller Status

Höhe 1222.3 km
Geschwindigkeit 7.25 km/s
Subsatellitenpunkt 87.26°N, 134.28°E
Startdatum 25. März 2021
Alter 4.8 years
Typ internet

Technische Details

Klassifizierung Payload
Masse 148.00 kg
Trockenmasse 140.00 kg
Gesamtmasse 148.00 kg
Länge 1.30 m
Durchmesser 1.00 m
Spannweite 5.00 m
Form Trapezoid+2 pan
Hersteller ONEWUS
Bus-Typ ARROW
Phasenstatus In Orbit
Besitzer/Staat ONEWEBN/UK

Große Konstellationen

Loading constellations...